TimePST,TemperatureF,Dew PointF,Humidity,Sea Level PressureIn,VisibilityMPH,Wind Direction,Wind SpeedMPH,Gust SpeedMPH,PrecipitationIn,Events,Conditions,WindDirDegrees,DateUTC
12:53 AM,1.9,-2.9,80,30.06,-9999.0,SSE,5.8,-,N/A,,Unknown,150,2012-12-19 08:53:00
1:53 AM,1.9,-2.0,83,30.09,-9999.0,SSW,4.6,-,N/A,,Unknown,200,2012-12-19 09:53:00
2:53 AM,-0.0,-5.1,79,30.13,-9999.0,South,5.8,-,N/A,,Unknown,190,2012-12-19 10:53:00
3:53 AM,-2.9,-7.1,82,30.18,-9999.0,South,4.6,-,N/A,,Unknown,170,2012-12-19 11:53:00
4:53 AM,3.0,-2.0,80,30.19,-9999.0,Calm,Calm,-,N/A,,Unknown,0,2012-12-19 12:53:00
5:53 AM,8.1,3.9,83,30.21,-9999.0,SSW,4.6,-,N/A,,Unknown,210,2012-12-19 13:53:00
6:53 AM,7.0,1.9,80,30.25,-9999.0,South,4.6,-,N/A,,Unknown,180,2012-12-19 14:53:00
7:53 AM,3.0,-0.9,84,30.29,-9999.0,SSW,6.9,-,N/A,,Unknown,210,2012-12-19 15:53:00
8:53 AM,10.0,3.9,76,30.29,-9999.0,SSW,3.5,-,N/A,,Unknown,210,2012-12-19 16:53:00
9:53 AM,15.1,8.1,74,30.32,-9999.0,SW,5.8,-,N/A,,Unknown,220,2012-12-19 17:53:00
10:53 AM,18.0,10.0,71,30.35,-9999.0,SW,5.8,-,N/A,,Unknown,230,2012-12-19 18:53:00
11:53 AM,19.9,10.0,65,30.37,-9999.0,SSW,3.5,-,N/A,,Unknown,200,2012-12-19 19:53:00
12:53 PM,19.9,10.0,65,30.37,-9999.0,South,6.9,-,N/A,,Unknown,170,2012-12-19 20:53:00
1:53 PM,21.0,9.0,60,30.37,-9999.0,SW,5.8,-,N/A,,Unknown,230,2012-12-19 21:53:00
2:53 PM,21.9,10.0,60,30.38,-9999.0,SSW,3.5,-,N/A,,Unknown,210,2012-12-19 22:53:00
3:53 PM,19.9,9.0,62,30.40,-9999.0,Calm,Calm,-,N/A,,Unknown,0,2012-12-19 23:53:00
4:53 PM,10.0,5.0,80,30.43,-9999.0,SSE,5.8,-,N/A,,Unknown,160,2012-12-20 00:53:00
5:53 PM,10.0,5.0,80,30.42,-9999.0,South,8.1,-,N/A,,Unknown,190,2012-12-20 01:53:00
6:53 PM,12.0,5.0,73,30.43,-9999.0,SSE,6.9,-,N/A,,Unknown,160,2012-12-20 02:53:00
7:53 PM,12.0,5.0,73,30.45,-9999.0,South,8.1,-,N/A,,Unknown,180,2012-12-20 03:53:00
8:53 PM,9.0,3.0,77,30.43,-9999.0,SW,9.2,-,N/A,,Unknown,230,2012-12-20 04:53:00
9:53 PM,10.9,3.9,73,30.41,-9999.0,SSW,9.2,-,N/A,,Unknown,200,2012-12-20 05:53:00
10:53 PM,8.1,3.0,80,30.41,-9999.0,SSW,6.9,-,N/A,,Unknown,200,2012-12-20 06:53:00
11:53 PM,7.0,1.9,80,30.40,-9999.0,WSW,8.1,-,N/A,,Unknown,240,2012-12-20 07:53:00